Location: Ariel
(45.9570°N, 122.5700°W)
Time: 23:06:12
(UTC-07:00)

DX 1 - Visible Passes

Search period start: 20 April 2019 00:00
Search period end: 30 April 2019 00:00
Orbit: 618 x 632 km, 98.4° (Epoch: 20 April)

Date Brightness Start Highest point End Pass type
(mag) Time Alt. Az. Time Alt. Az. Time Alt. Az.
20 Apr ? 03:55:23 26° SSE 03:57:47 72° ENE 04:02:06 10° N visible
20 Apr ? 05:32:44 10° WSW 05:34:26 12° W 05:36:08 10° WNW visible
21 Apr ? 02:38:56 10° E 02:41:04 14° ENE 02:43:12 10° NNE visible
21 Apr ? 04:14:17 26° S 04:16:39 74° WSW 04:21:00 10° NNW visible
22 Apr ? 02:56:37 10° ESE 02:59:44 20° ENE 03:02:51 10° NNE visible
22 Apr ? 04:33:11 23° SSW 04:35:35 46° W 04:39:46 10° NNW visible
23 Apr ? 03:14:50 10° SE 03:18:27 29° ENE 03:22:11 10° N visible
23 Apr ? 04:52:05 18° SSW 04:54:33 30° W 04:58:23 10° NW visible
24 Apr ? 03:33:44 14° SE 03:37:13 43° ENE 03:41:19 10° N visible
24 Apr ? 05:11:00 13° SW 05:13:35 20° W 05:16:46 10° NW visible
25 Apr ? 03:52:39 16° SSE 03:56:02 67° ENE 04:00:20 10° N visible
25 Apr ? 05:30:39 10° WSW 05:32:39 13° W 05:34:40 10° WNW visible
26 Apr ? 02:37:27 10° E 02:39:21 13° ENE 02:41:16 10° NNE visible
26 Apr ? 04:11:34 17° S 04:14:54 79° WSW 04:19:15 10° NNW visible
27 Apr ? 02:55:01 10° ESE 02:58:01 19° ENE 03:01:01 10° NNE visible
27 Apr ? 04:30:29 15° S 04:33:49 50° W 04:38:03 10° NNW visible
28 Apr ? 03:13:06 10° ESE 03:16:44 27° ENE 03:20:22 10° N visible
28 Apr ? 04:49:23 13° SSW 04:52:47 32° W 04:56:41 10° NNW visible
29 Apr ? 03:31:28 10° SE 03:35:29 40° ENE 03:39:33 10° N visible
29 Apr ? 05:08:30 10° SW 05:11:48 21° W 05:15:07 10° NW visible
